Terminal Aerodrome Forecast
Issued by NWS San Angelo, TX

Home | Current Version | Previous Version | Text Only | Print | Product List | Glossary On
Versions: 1 2 3 4 5 6 7 8 9 10 11 12 13
000
FTUS44 KSJT 040500
TAFABI
TAF
KABI 040520Z 0406/0506 16012G19KT P6SM BKN250
     FM041000 16011KT P6SM OVC015
     FM041600 17015G22KT P6SM SCT050=

USA.gov is the U.S. government's official web portal to all federal, state and local government web resources and services.